Showing default

OV1-4, 2121

Orbit data source: Space-Track

OV1-4, 2121 is a payload satellite owned by USAF OAR (US) in LEO that was launched on Wed, 30 Mar 1966 UTC via an ATLAS D launch vehicle from the Air Force Western Test Range (AFWTR). Payloads include a variety of satellites, spacecraft, and rockets equipped with specific instruments for various scientific and technological missions. These include communications satellites like Starlink; space stations such as the ISS; scientific satellites like the Hubble; Earth observation satellites from companies like Planet Labs, Umbra, and HawkEye 360; GPS; miniature CubeSats for education and research; and military/defense satellites.

Loading next visibility...
OV1-4 details
Identifier
2121, 1966-025A
Orbit
LEO
Last TLE update14 hours ago
Origin
Flag of USUSAF OAR (US)
ManufacturerGD/Convair
MissionDefense Science
Bus & MotorOV1, Unknown motor
Mass87 kg wet, 87 kg dry
Launch date (UTC)
1966-03-30 (59 years ago)
Launch vehicle
ATLAS D
Launch site
Air Force Western Test Range (AFWTR)
Object type
Payload
Rocket body
Debris
Shape & HBRDomed Cyl, 1.4 m
Radar Cross Section0.946 m², Medium (>0.1 m² and < 1m²)

Expand to show TLE details & history

TLE from 14 hours ago
0 OV1-4
1 02121U 66025A   24355.91492366  .00000421  00000-0  12366-3 0  9992
2 02121 144.5020 152.9377 0082717  87.7333 273.2816 13.87209927975664
Epoch: 2024-12-20T21:57Z
Definitive object data (Epoch: 2024-12-20T21:57:29.404Z)
Latitude
Longitude93.59159°
Altitude934.482 km
Speed7.388 km/s
True Right ascension10h 11m 45s
True Declination0° 00' 00"
Sunlit
Object was in daylight at TLE epoch
Visualization TLE readout
Latitude24.57925°
Longitude56.89406°
Altitude895.504 km
Speed7.43 km/s
Apparent Right ascension04h 35m 34s
Apparent Declination-11° 54' 06"
Sunlit
Object is in full shadow
Visualization observer readout
Local Sidereal Time11:01:29
Azimuth264.869° W
Elevation-12.536°
Doppler factor1
Orbital elements
Apogee altitude1,001.951 km
Perigee altitude880.86 km
Semi-major axis7,319.543 km
Eccentricity0.0082717
Inclination144.502°
RAAN152.9377°
Arg. of periapsis87.7333°
True anomaly272.33477°
Mean anomaly273.2816°
Eccentric anomaly272.80824°
Mean motion3.46591 °/min
BSTAR0.00012366
Orbital period103.87 mins
Loading maneuver chart data...
Loading historical data...
Loading historical data...
Loading historical data...
Loading historical data...
Loading historical data...
Loading historical data...
Loading historical data...

OV1-4 Visibility forecast

Observer location: undefined°, undefined

Span
Click to sort rows by Start time (UTC) header in descending order
Start Az.
Max El. time (UTC)
Max El. Az.
Max El.
End time (UTC)
End Az.
7 mins2024-12-22 02:08:45.866Z109.425° ESE2024-12-22 02:12:45.866Z162.441° S20.232°2024-12-22 02:15:45.866Z199.302° SSW
8 mins2024-12-22 03:47:45.866Z106.37° ESE2024-12-22 03:50:45.866Z164.307° S34.64°2024-12-22 03:55:45.866Z237.131° WSW
8 mins2024-12-22 05:25:45.866Z107.327° ESE2024-12-22 05:28:45.866Z158.276° S39.424°2024-12-22 05:33:45.866Z256.057° W
8 mins2024-12-22 07:03:45.866Z126.005° SE2024-12-22 07:07:45.866Z198.417° SSW35.551°2024-12-22 07:11:45.866Z261.257° W
6 mins2024-12-22 08:43:45.866Z169.588° S2024-12-22 08:45:45.866Z198.494° SSW21.934°2024-12-22 08:49:45.866Z252.365° W
|